Wetbulb
53.76 53.90 53.50 53.08 52.84 52.55 52.28 52.62 52.91 52.92 53.27 53.82 54.54 54.23 53.20 52.75 52.72 53.17 52.91 53.08 53.83 54.40
53.13 52.95 52.55 52.41 52.64 52.52 52.57 53.81 52.40 52.17 51.22 51.21 50.74 50.39 49.28 48.98 48.79 49.03 48.59 48.53 50.23 50.18
52.45 52.66 52.07 51.91 51.39 51.50 51.30 50.85 49.94 49.47 49.01 48.97 49.18 48.93 47.73 46.97 47.51 47.46 47.20 48.26 48.28 47.81
51.62 51.93 51.69 51.10 50.85 50.85 49.82 49.08 49.06 49.22 48.71 48.60 48.41 48.25 47.20 46.63 47.36 47.67 47.08 46.99 47.04 47.14
50.70 50.64 50.39 49.92 49.97 50.22 48.65 48.54 48.68 49.02 48.87 49.06 49.31 48.63 47.38 47.31 48.22 47.75 47.50 47.28 46.90 47.49
49.67 49.80 49.10 49.05 49.20 49.79 48.31 47.60 48.16 48.30 48.12 48.60 48.86 47.99 47.55 47.48 47.95 47.87 48.25 47.80 47.28 47.33
48.01 49.10 48.44 48.64 48.16 47.64 48.07 47.85 47.97 48.21 48.53 48.90 48.53 48.33 48.56 47.99 46.59 46.35 47.07 47.19 47.27 47.21
47.46 47.49 47.49 47.29 47.16 47.24 46.89 47.49 48.20 48.15 47.66 47.29 48.14 48.71 47.73 48.43 48.29 47.83 47.31 47.55 47.39 47.21
44.57 45.46 45.63 45.99 45.92 45.34 45.36 46.12 46.54 46.77 46.66 46.51 48.00 46.89 47.17 48.44 48.02 48.33 47.58 46.93 47.62 47.68
43.19 43.43 43.48 44.67 44.67 44.06 44.16 45.33 45.69 45.40 47.73 46.63 46.27 45.85 45.46 46.83 47.79 47.62 46.92 47.55 47.86 48.19
41.14 41.52 42.71 42.83 43.20 43.56 44.07 44.85 45.13 46.75 48.35 46.67 47.79 46.31 44.74 44.87 45.63 45.33 45.63 46.55 46.99 47.31
39.73 40.38 40.81 41.69 44.21 43.35 43.81 45.28 45.76 45.88 46.58 45.98 46.47 45.11 42.83 42.80 42.48 42.79 43.83 45.45 46.21 46.08
40.27 41.62 41.88 43.41 43.82 45.54 45.71 46.57 47.67 46.67 45.59 45.92 44.70 42.49 41.52 41.36 40.40 40.22 41.70 42.49 43.97 44.55
39.94 39.08 41.76 42.11 43.49 44.50 45.04 43.64 44.19 43.33 43.45 43.89 42.03 41.11 40.44 40.11 38.78 39.48 39.64 41.24 43.33 46.47
MSLP
1013.08 1013.54 1014.00 1014.24 1014.50 1014.79 1014.89 1014.90 1014.92 1014.80 1014.66 1014.66 1014.50 1014.57 1014.57 1014.53 1014.51 1014.32 1014.09 1013.89 1013.68 1013.44
1013.64 1014.01 1014.37 1014.50 1014.53 1014.54 1014.48 1014.54 1014.65 1014.65 1014.73 1014.83 1014.87 1014.86 1014.84 1014.77 1014.57 1014.31 1014.06 1013.88 1013.60 1013.38
1013.92 1014.13 1014.24 1014.33 1014.51 1014.46 1014.49 1014.56 1014.68 1014.79 1014.88 1014.86 1014.77 1014.69 1014.67 1014.57 1014.28 1014.13 1013.80 1013.46 1013.10 1012.85
1014.10 1014.25 1014.29 1014.34 1014.37 1014.35 1014.39 1014.44 1014.50 1014.54 1014.56 1014.57 1014.41 1014.30 1014.36 1014.23 1013.95 1013.82 1013.46 1012.99 1012.75 1012.23
1014.16 1014.21 1014.15 1014.20 1014.30 1014.34 1014.29 1014.32 1014.42 1014.52 1014.57 1014.47 1014.23 1014.13 1014.05 1013.91 1013.59 1013.30 1012.85 1012.44 1012.17 1011.63
1014.36 1014.21 1014.26 1014.39 1014.34 1014.30 1014.32 1014.44 1014.62 1014.71 1014.59 1014.29 1014.00 1013.80 1013.58 1013.37 1013.03 1012.61 1012.26 1011.98 1011.48 1010.88
1014.60 1014.41 1014.36 1014.30 1014.38 1014.58 1014.63 1014.66 1014.66 1014.50 1014.22 1013.87 1013.59 1013.41 1013.11 1012.81 1012.46 1012.06 1011.57 1011.12 1010.62 1010.05
1014.86 1014.68 1014.57 1014.62 1014.73 1014.67 1014.62 1014.56 1014.37 1014.08 1013.62 1013.33 1013.24 1012.90 1012.50 1012.06 1011.58 1011.04 1010.51 1009.93 1009.42 1008.95
1015.55 1015.38 1015.17 1014.89 1014.77 1014.66 1014.53 1014.21 1013.85 1013.41 1013.17 1012.99 1012.70 1012.22 1011.88 1011.50 1010.96 1010.38 1009.78 1009.14 1008.45 1007.87
1015.89 1015.76 1015.52 1015.16 1014.86 1014.65 1014.35 1013.88 1013.49 1013.15 1012.77 1012.55 1012.26 1011.82 1011.40 1011.06 1010.72 1009.91 1009.04 1008.27 1007.41 1006.59
1016.18 1015.99 1015.68 1015.27 1014.84 1014.47 1014.07 1013.68 1013.25 1012.92 1012.60 1012.41 1011.98 1011.47 1011.20 1010.95 1010.15 1009.42 1008.26 1007.26 1006.34 1005.64
1016.50 1016.12 1015.70 1015.21 1014.70 1014.27 1013.91 1013.32 1012.92 1012.69 1012.44 1012.18 1011.68 1011.36 1011.16 1010.74 1009.97 1008.81 1007.59 1006.77 1005.59 1004.92
1016.38 1015.98 1015.54 1015.04 1014.55 1014.00 1013.57 1013.10 1012.64 1012.45 1012.20 1011.92 1011.66 1011.31 1010.97 1010.69 1010.00 1008.76 1007.56 1006.07 1004.87 1003.82
1016.39 1016.07 1015.44 1015.02 1014.49 1013.97 1013.43 1013.27 1013.08 1012.83 1012.34 1012.13 1011.83 1011.24 1010.84 1010.54 1010.00 1009.02 1007.46 1006.13 1004.48 1003.03
Wind_Speed
8 5 4 4 4 4 3 4 2 4 4 5 6 5 5 3 4 5 5 6 5 5
7 7 6 5 4 3 3 3 6 6 6 5 4 3 3 3 5 4 4 5 5 4
6 6 6 5 4 4 4 4 5 3 2 3 3 4 4 4 5 6 5 5 6 7
5 5 5 5 3 4 4 3 2 1 3 4 5 6 5 6 7 8 8 8 9 11
4 4 4 3 2 3 3 1 2 3 4 5 6 6 6 7 8 9 10 10 9 11
2 2 2 2 2 4 3 1 3 4 5 6 6 6 7 7 9 8 8 9 9 12
6 4 3 3 0 5 4 4 3 4 6 6 6 6 7 6 6 8 9 10 11 12
8 7 7 7 6 5 4 2 4 5 6 5 5 6 7 9 10 11 12 12 12 13
7 7 7 6 6 5 5 5 5 6 6 6 6 11 14 13 11 12 13 14 14 14
7 7 6 6 5 5 6 6 7 6 7 7 7 13 14 15 10 11 13 14 14 14
8 8 7 6 6 6 5 6 5 7 7 6 8 13 13 12 12 12 14 14 16 15
7 7 7 6 7 7 6 7 5 5 7 8 9 10 14 12 12 13 15 13 15 15
8 7 8 8 8 8 7 7 6 6 6 9 7 12 13 10 10 12 10 15 15 20
7 8 7 7 7 7 7 5 6 6 7 6 9 13 19 18 11 9 11 10 12 12
Wind_Direction
89 88 92 101 107 110 118 131 108 68 47 21 17 12 12 358 339 341 329 309 303 294
101 106 115 113 109 106 89 70 49 50 48 34 23 9 350 316 305 308 288 281 273 275
118 116 113 101 97 95 85 83 83 67 34 326 301 292 289 284 280 281 278 273 272 281
115 117 113 112 115 112 121 127 119 334 311 302 293 285 271 265 264 259 261 266 269 271
112 113 109 115 125 145 155 181 261 284 298 293 286 276 266 265 270 262 266 257 257 265
57 134 171 191 179 182 195 288 332 317 293 278 267 265 261 256 263 260 261 262 263 276
336 307 269 234 80 38 57 45 341 285 271 273 276 279 274 270 271 272 273 268 265 269
360 11 33 44 62 44 23 329 277 277 289 292 291 289 290 292 291 287 283 274 267 261
14 10 14 20 18 359 330 304 308 302 296 297 296 289 291 295 295 288 284 284 276 265
7 360 348 340 339 337 324 314 301 310 306 297 284 287 288 297 304 298 288 282 279 277
359 344 337 329 327 325 309 302 306 304 313 308 304 306 325 319 317 303 285 280 278 280
335 324 320 314 320 309 296 301 298 292 307 309 311 327 335 337 321 300 295 297 293 285
324 329 319 313 314 307 302 291 308 309 310 315 324 331 330 332 324 304 308 306 300 296
337 324 311 318 310 327 327 327 344 328 327 334 340 331 328 334 324 309 309 304 304 305